CW4167 Weather Reports


Display with metric or nautical units.
time (UTC)temp
F
wind
direction
speed
MPH
gust
MPH
rain 1hr
in
rain 24hr
in
rain mn
in
humidity
%
barometer
mb
20260905184206 58 269 10.0 22.0 0.00 0.06 0.06 77 1009.8
20260905183207 58 258 11.0 20.0 0.00 0.06 0.06 76 1009.8
20260905182705 58 280 12.0 23.0 0.00 0.06 0.06 76 1009.7
20260905182206 59 278 11.0 21.0 0.00 0.06 0.06 76 1009.7
20260905180207 59 257 17.0 24.0 0.00 0.06 0.06 76 1009.3
20260905175705 59 255 17.0 26.0 0.00 0.06 0.06 76 1009.2
20260905174207 59 282 12.0 20.0 0.00 0.06 0.06 75 1009.2
20260905173705 60 280 10.0 23.0 0.00 0.06 0.06 74 1009.0
20260905171705 60 258 18.0 26.0 0.00 0.07 0.06 73 1008.7
20260905170706 61 279 18.0 29.0 0.00 0.13 0.06 70 1008.6
20260905170207 61 279 19.0 30.0 0.00 0.14 0.06 70 1008.7
20260905165705 61 277 13.0 24.0 0.00 0.15 0.06 71 1008.6
20260905165205 62 267 17.0 28.0 0.00 0.16 0.06 71 1008.5
20260905164705 62 292 13.0 28.0 0.00 0.17 0.06 71 1008.3
20260905164205 62 268 17.0 30.0 0.00 0.19 0.06 71 1008.3
20260905163706 62 276 15.0 26.0 0.00 0.21 0.06 71 1008.2
20260905161705 63 261 12.0 24.0 0.00 0.21 0.06 69 1008.0
20260905160206 62 278 12.0 22.0 0.00 0.21 0.06 73 1007.8
20260905155205 63 271 8.0 23.0 0.00 0.21 0.06 72 1007.8
20260905154707 63 292 15.0 28.0 0.00 0.21 0.06 71 1007.8
20260905154205 63 267 9.0 18.0 0.00 0.21 0.06 72 1007.8
20260905152205 63 269 14.0 22.0 0.00 0.22 0.06 71 1007.5
20260905145206 61 273 15.0 18.0 0.00 0.22 0.06 75 1007.1
20260905144708 62 290 12.0 25.0 0.00 0.22 0.06 74 1007.1
20260905144205 63 275 16.0 25.0 0.00 0.22 0.06 72 1007.1
20260905143706 63 260 10.0 20.0 0.00 0.22 0.06 70 1007.1
20260905143206 64 259 14.0 22.0 0.00 0.22 0.06 68 1007.2
20260905142205 65 255 10.0 20.0 0.00 0.22 0.06 70 1007.1
20260905141706 65 269 12.0 20.0 0.00 0.22 0.06 70 1007.1
20260905141206 65 280 10.0 23.0 0.00 0.22 0.06 70 1007.0
20260905140706 65 258 10.0 17.0 0.00 0.22 0.06 70 1007.0
20260905140207 64 249 13.0 26.0 0.00 0.22 0.06 69 1007.0
20260905135205 64 240 14.0 18.0 0.00 0.22 0.06 69 1007.0
20260905134706 64 263 16.0 23.0 0.00 0.22 0.06 69 1007.0
20260905133706 63 248 18.0 23.0 0.00 0.22 0.06 71 1007.0
20260905133206 63 261 13.0 23.0 0.00 0.22 0.06 70 1007.0
20260905132705 64 267 16.0 30.0 0.00 0.22 0.06 69 1006.8
20260905131706 65 265 13.0 29.0 0.00 0.23 0.06 68 1006.6
20260905130705 65 278 12.0 22.0 0.00 0.30 0.06 69 1006.7
20260905130205 65 284 14.0 28.0 0.00 0.30 0.06 68 1006.7
20260905125705 65 255 13.0 24.0 0.00 0.31 0.06 70 1006.6
20260905123705 65 283 13.0 25.0 0.00 0.32 0.06 68 1006.2
20260905122705 64 301 14.0 20.0 0.00 0.33 0.06 69 1006.1
20260905122207 64 282 17.0 32.0 0.00 0.33 0.06 68 1006.1
20260905115709 64 269 18.0 28.0 0.00 0.35 0.06 66 1005.7
20260905114709 64 271 17.0 24.0 0.00 0.36 0.06 67 1005.6
20260905113207 63 268 14.0 22.0 0.00 0.37 0.06 68 1005.7
20260905112707 63 257 18.0 26.0 0.00 0.38 0.06 68 1005.7
20260905112208 63 285 17.0 30.0 0.00 0.39 0.06 68 1005.6
20260905111208 63 282 15.0 24.0 0.00 0.39 0.06 71 1005.4
20260905105207 63 257 15.0 22.0 0.00 0.41 0.06 71 1005.4
20260905104708 64 265 19.0 25.0 0.00 0.41 0.06 69 1005.5
20260905104208 64 253 16.0 25.0 0.00 0.43 0.06 70 1005.4
20260905101707 63 256 16.0 22.0 0.00 0.45 0.06 72 1005.2
20260905101207 63 247 17.0 28.0 0.00 0.45 0.06 71 1005.1
20260905100209 63 266 19.0 29.0 0.00 0.45 0.06 71 1005.0
20260905094709 63 251 15.0 22.0 0.00 0.46 0.06 74 1004.9
20260905094209 62 269 14.0 23.0 0.00 0.46 0.06 75 1005.0
20260905093708 62 262 18.0 26.0 0.00 0.46 0.06 74 1005.0
20260905091707 61 259 14.0 24.0 0.00 0.47 0.06 78 1004.9
20260905091210 60 243 14.0 24.0 0.00 0.47 0.06 79 1004.8
20260905090207 60 256 17.0 24.0 0.00 0.47 0.06 79 1004.8
20260905085208 59 253 14.0 24.0 0.00 0.47 0.06 79 1004.8
20260905084708 59 269 16.0 23.0 0.00 0.47 0.06 79 1004.7
20260905083707 59 255 12.0 22.0 0.00 0.47 0.06 80 1004.7
20260905082207 59 247 13.0 24.0 0.00 0.48 0.06 81 1004.6
20260905081208 59 264 11.0 20.0 0.00 0.49 0.06 81 1004.5
20260905080707 59 262 11.0 17.0 0.00 0.49 0.06 80 1004.6
20260905075207 60 242 20.0 26.0 0.00 0.50 0.06 77 1004.2
20260905074708 60 259 16.0 23.0 0.00 0.51 0.06 78 1004.2
20260905074209 61 277 12.0 26.0 0.00 0.51 0.06 78 1004.2
20260905073207 61 253 15.0 25.0 0.00 0.51 0.06 78 1004.2
20260905071707 61 255 16.0 20.0 0.00 0.51 0.06 80 1004.0
20260905070207 60 229 13.0 18.0 0.00 0.51 0.06 82 1003.9
20260905065709 60 256 10.0 20.0 0.00 0.51 0.06 82 1003.9
20260905065209 60 230 12.0 24.0 0.00 0.51 0.06 83 1003.9
20260905064708 59 249 12.0 20.0 0.00 0.51 0.06 83 1003.9
20260905064208 59 245 14.0 22.0 0.00 0.51 0.06 83 1003.9
20260905061708 58 255 11.0 21.0 0.00 0.51 0.06 84 1003.7
20260905061207 58 272 11.0 17.0 0.00 0.51 0.06 84 1003.7
20260905060707 58 226 9.0 18.0 0.00 0.51 0.06 84 1003.5
20260905060209 58 252 10.0 21.0 0.00 0.51 0.06 85 1003.5
20260905053208 57 250 7.0 14.0 0.01 0.51 0.06 86 1003.4
20260905052707 57 267 11.0 17.0 0.01 0.51 0.06 86 1003.4
20260905044707 56 251 10.0 17.0 0.00 0.50 0.05 86 1002.9
20260905043207 56 263 10.0 20.0 0.00 0.50 0.05 87 1002.8
20260905041208 56 257 11.0 21.0 0.00 0.50 0.05 88 1002.7
20260905033208 56 241 9.0 17.0 0.00 0.50 0.05 88 1002.4
20260905032708 56 253 9.0 17.0 0.00 0.50 0.05 88 1002.3
20260905032209 56 245 9.0 17.0 0.00 0.50 0.05 88 1002.3
20260905031707 56 259 9.0 14.0 0.00 0.50 0.05 88 1002.2
20260905030707 56 241 12.0 22.0 0.00 0.50 0.05 87 1002.2
20260905024708 55 257 10.0 17.0 0.00 0.50 0.05 87 1002.1
20260905024208 55 265 7.0 17.0 0.00 0.50 0.05 87 1002.0
20260905022709 55 266 10.0 16.0 0.00 0.50 0.05 87 1001.8
20260905021707 55 270 14.0 24.0 0.00 0.50 0.05 88 1001.7
20260905020706 55 263 10.0 16.0 0.00 0.50 0.05 88 1001.7
20260905020208 55 285 14.0 21.0 0.00 0.50 0.05 88 1001.6
20260905015707 55 256 12.0 21.0 0.00 0.50 0.05 88 1001.6
20260905013706 55 272 11.0 21.0 0.00 0.50 0.05 89 1001.3
20260905012208 55 278 13.0 24.0 0.01 0.50 0.05 90 1001.0
20260905011706 56 259 14.0 21.0 0.01 0.50 0.05 90 1001.0
20260905011206 56 256 13.0 24.0 0.01 0.50 0.05 90 1001.0
20260905005208 56 270 12.0 17.0 0.05 0.50 0.05 90 1000.6
20260905004707 56 268 10.0 18.0 0.05 0.50 0.05 90 1000.6
20260905003207 56 273 10.0 22.0 0.04 0.49 0.04 89 1000.5
20260905002707 56 256 12.0 17.0 0.04 0.49 0.04 89 1000.5
20260905000207 57 260 13.0 21.0 0.04 0.49 0.04 88 1000.3
20260904235706 57 254 12.0 18.0 0.01 0.46 0.01 88 1000.3
20260904235208 57 241 12.0 18.0 0.00 0.45 0.00 88 1000.3
20260904233207 57 255 11.0 17.0 0.00 0.45 0.00 88 1000.3
20260904232708 57 249 12.0 21.0 0.00 0.45 0.00 88 1000.4
20260904232209 57 250 10.0 20.0 0.00 0.45 0.00 87 1000.3
20260904231709 57 261 10.0 16.0 0.00 0.45 0.00 87 1000.1
20260904231207 57 235 11.0 18.0 0.00 0.45 0.00 87 1000.1
20260904230708 57 257 14.0 21.0 0.00 0.45 0.00 87 1000.1
20260904225707 57 259 13.0 20.0 0.00 0.45 0.00 87 1000.1
20260904225207 57 256 13.0 18.0 0.00 0.45 0.00 87 1000.1
20260904224708 57 266 9.0 16.0 0.00 0.45 0.00 87 1000.0
20260904222707 57 270 10.0 15.0 0.00 0.45 0.00 87 999.9
20260904221707 57 252 11.0 21.0 0.00 0.45 0.00 87 999.9
20260904220708 57 269 10.0 21.0 0.00 0.45 0.00 87 1000.0
20260904220206 57 257 14.0 26.0 0.00 0.45 0.00 88 1000.0
20260904215206 57 277 10.0 16.0 0.00 0.45 0.45 88 999.9
20260904214707 57 254 11.0 22.0 0.00 0.45 0.45 87 999.8
20260904212707 56 247 11.0 23.0 0.00 0.45 0.45 88 999.6
20260904212206 56 252 13.0 23.0 0.00 0.45 0.45 88 999.6
20260904211708 56 256 11.0 20.0 0.00 0.45 0.45 88 999.6
20260904210707 56 267 13.0 23.0 0.00 0.45 0.45 88 999.6
20260904210206 56 283 14.0 28.0 0.00 0.45 0.45 88 999.5
20260904205708 56 250 12.0 14.0 0.00 0.45 0.45 88 999.5
20260904205208 56 267 14.0 25.0 0.00 0.45 0.45 88 999.3
20260904204206 56 267 13.0 21.0 0.00 0.45 0.45 88 999.3
20260904202706 56 273 14.0 22.0 0.00 0.45 0.45 89 999.2
20260904202207 56 258 13.0 24.0 0.00 0.45 0.45 89 999.2
20260904201207 57 257 16.0 26.0 0.00 0.45 0.45 89 999.0
20260904195707 57 259 17.0 30.0 0.00 0.45 0.45 91 998.9
20260904195208 57 259 15.0 28.0 0.00 0.45 0.45 90 998.7
20260904194707 57 266 11.0 22.0 0.00 0.45 0.45 91 998.7
20260904194207 57 276 16.0 22.0 0.00 0.45 0.45 91 998.7
20260904193708 57 271 16.0 21.0 0.00 0.45 0.45 91 998.5
20260904193206 58 274 12.0 18.0 0.00 0.45 0.45 91 998.2
20260904191709 58 263 11.0 18.0 0.00 0.45 0.45 92 998.2